[[{"header":{"parameterUnit":"m.s-1","parameterCategory":2,"la1":30.2991,"la2":30.254,"lo1":-89.0895,"lo2":-89.0444,"dy":0.0017,"dx":0.0017,"nx":28,"ny":28,"refTime":"2024-06-27T21:00:00:Z","depth":"0","parameterNumber":2,"parameterNumberName":"U-component_of_CURRENTS"},"data":[0,0,0,0,0,0,0,0,0,0,0,0,0,0,0,0,0,0,0,0,0,0,0,0,0,0,0,0,0,0,0,0,0,0,0,0,0,0,0,0,0,0,0,0,0,0,0,0,0,0,0,0,0,0,0,0,0,0,0.149,0.149,0,0.1479,0.1479,0.1479,0.146,0.146,0.146,0.1459,0.1442,0.1442,0.1442,0,0,0,0,0,0,0,0,0,0,0,0,0,0.1492,0.1492,0.149,0.149,0.149,0.1479,0.1479,0.1479,0.146,0.146,0.146,0.1459,0.1442,0.1442,0.1442,0,0,0,0,0,0,0,0,0,0,0,0,0,0.1486,0.1492,0.149,0.148,0.1479,0.1479,0.1479,0.1478,0.146,0.146,0.1459,0.1459,0.1442,0.1442,0.1442,0.1447,0,0,0.1441,0.144,0,0,0,0,0,0,0,0,0.1486,0.1486,0.1481,0.1481,0.148,0.1472,0.1473,0.1468,0.146,0.1466,0.1459,0.1459,0.1453,0.1451,0.1448,0.1446,0.1445,0.1441,0.144,0.144,0.144,0,0,0,0,0,0,0,0.1487,0.1486,0.1484,0.1481,0.148,0.1476,0.1474,0.1472,0.146,0.1465,0.1464,0.1465,0.1452,0.1449,0.1448,0.1445,0.1441,0.144,0.144,0.144,0.1463,0.1464,0,0,0,0,0,0,0.1491,0.1487,0.1484,0.1484,0.1484,0.1476,0.1475,0.1474,0.146,0.1458,0.1466,0.1465,0.145,0.1448,0.1447,0.1483,0.144,0.144,0.144,0.1462,0.1463,0.1464,0,0,0,0,0,0,0.1491,0.1491,0.1485,0.1486,0.1485,0.1477,0.1476,0.1474,0.1471,0.1461,0.1458,0.1465,0.1449,0.1448,0.1451,0.1481,0.144,0.1439,0.1461,0.1462,0.1463,0.1534,0,0,0,0,0,0,0.1491,0.1491,0.1491,0.1486,0.1485,0.149,0.1476,0.1474,0.1473,0.1471,0.146,0.1458,0.1449,0.1451,0.145,0.1479,0.1439,0.146,0.1462,0.1463,0.1531,0.1538,0.1544,0,0,0,0,0,0.1491,0.1498,0.1491,0.1491,0.1486,0.149,0.1489,0.1481,0.1473,0.1476,0.147,0.1458,0.1461,0.1452,0.145,0.148,0.1459,0.1461,0.1463,0.1528,0.1536,0.1543,0,0,0,0,0,0,0.1503,0.1497,0.1489,0.1494,0.1493,0.1487,0.1492,0.1484,0.1481,0.1481,0.1466,0.1464,0.1476,0.1466,0.1456,0.149,0.1459,0.1461,0.1509,0.1517,0.1523,0.1568,0.1439,0,0,0,0,0,0.1505,0.151,0.15,0.1508,0.1506,0.1499,0.1499,0.1495,0.1492,0.1489,0.1481,0.1478,0.1483,0.1489,0.1483,0.1504,0.1538,0.1522,0.1529,0.1534,0.1569,0.1671,0.1692,0.147,0.147,0.147,0,0,0.1513,0.1512,0.1514,0.1511,0.151,0.1521,0.1498,0.1505,0.152,0.1489,0.1504,0.1494,0.149,0.1511,0.1517,0.1509,0.1604,0.1536,0.1542,0.1574,0.1676,0.1698,0.1717,0.1471,0.1471,0.1471,0,0,0.1546,0.153,0.1547,0.1546,0.1547,0.1541,0.1543,0.1537,0.1538,0.155,0.1536,0.1552,0.1545,0.1564,0.157,0.161,0.1628,0.1597,0.1678,0.1776,0.1797,0.1815,0.1847,0.1868,0.161,0.161,0.161,0,0.1558,0.1573,0.1554,0.1572,0.1577,0.1552,0.1573,0.1574,0.1572,0.1586,0.1564,0.1591,0.1581,0.1636,0.1655,0.163,0.1671,0.1649,0.179,0.1809,0.1827,0.1855,0.1878,0.1614,0.1613,0.1613,0.1612,0,0.1606,0.1613,0.1624,0.1635,0.1637,0.165,0.1645,0.165,0.1644,0.1651,0.1688,0.1684,0.1711,0.1705,0.1698,0.181,0.179,0.1781,0.1779,0.1854,0.1877,0.1899,0.1619,0.1617,0.1616,0.1616,0,0,0.1651,0.1655,0.1659,0.1665,0.1669,0.1672,0.1702,0.1723,0.1747,0.1756,0.1809,0.1831,0.1836,0.1846,0.1837,0.1927,0.2066,0.1924,0.1927,0.197,0.2259,0.231,0.2338,0.21,0.2105,0.2109,0.221,0,0.1696,0.1724,0.1722,0.1751,0.176,0.1751,0.1777,0.1795,0.1804,0.1845,0.1874,0.1907,0.1886,0.1904,0.1998,0.2032,0.2136,0.2038,0.2167,0.217,0.2222,0.2371,0.2269,0.236,0.2232,0.2235,0.2238,0,0.1749,0.1755,0.1782,0.1794,0.1799,0.1813,0.184,0.1861,0.1914,0.1929,0.1988,0.2002,0.2099,0.2084,0.2238,0.218,0.2254,0.2291,0.2295,0.2349,0.2267,0.2271,0.2405,0.2244,0.2272,0.2269,0.2267,0,0.1777,0.1801,0.1814,0.1818,0.1829,0.1845,0.1853,0.1889,0.1903,0.1987,0.2013,0.212,0.2162,0.2287,0.2371,0.2321,0.256,0.2482,0.2598,0.2596,0.2541,0.253,0.2559,0.2668,0.2668,0.2668,0.2667,0,0.1818,0.1837,0.1821,0.1825,0.1844,0.1856,0.1882,0.1908,0.1954,0.1991,0.2056,0.2121,0.2235,0.2362,0.2437,0.2602,0.2618,0.2668,0.267,0.2555,0.2545,0.2426,0.2334,0.2671,0.2671,0.267,0.2669,0,0.1862,0.1845,0.186,0.1859,0.1852,0.1866,0.1866,0.1891,0.1931,0.1988,0.2021,0.2145,0.2312,0.2433,0.2629,0.2677,0.2743,0.2893,0.2726,0.2712,0.2635,0.255,0.2583,0.2534,0.3002,0.3005,0.3007,0,0.1923,0.1918,0.1872,0.1859,0.1856,0.1858,0.1859,0.1878,0.1898,0.2003,0.2043,0.2223,0.2349,0.2637,0.2803,0.2979,0.285,0.2979,0.2892,0.2686,0.259,0.2455,0.24,0.28,0.28,0.28,0.28,0,0.2033,0.1976,0.1952,0.1894,0.1875,0.1851,0.1852,0.1855,0.1897,0.1952,0.2069,0.2182,0.2472,0.2626,0.2888,0.2991,0.279,0.2992,0.2834,0.2526,0.2326,0.2258,0.2617,0.2803,0.2802,0.2802,0.2802,0.2802,0.2124,0.209,0.2007,0.1948,0.1905,0.1852,0.1828,0.1842,0.1865,0.1927,0.2059,0.218,0.2373,0.2731,0.2855,0.2901,0.2863,0.277,0.2704,0.2602,0.2517,0.2886,0.3053,0.3054,0.3055,0.3056,0.3056,0,0.2237,0.2138,0.2081,0.1968,0.1903,0.187,0.183,0.1803,0.1821,0.1895,0.1986,0.2113,0.2278,0.2456,0.2599,0.2553,0.2489,0.2468,0.2191,0.2172,0.2543,0.2495,0.2482,0.2482,0.2482,0.2482,0.2482,0.2482,0.2301,0.2213,0.2117,0.1993,0.1913,0.1825,0.1793,0.1755,0.1769,0.1785,0.1814,0.1875,0.1986,0.2071,0.2096,0.2121,0.1937,0.1898,0.189,0.204,0.2058,0.2076,0.2009,0.1893,0.1893,0.1434,0.143,0.1427]},{"header":{"parameterUnit":"m.s-1","parameterCategory":2,"la1":30.2991,"la2":30.254,"lo1":-89.0895,"lo2":-89.0444,"dy":0.0017,"dx":0.0017,"nx":28,"ny":28,"refTime":"2024-06-27T21:00:00:Z","depth":"0","parameterNumber":3,"parameterNumberName":"V-component_of_CURRENTS"},"data":[0,0,0,0,0,0,0,0,0,0,0,0,0,0,0,0,0,0,0,0,0,0,0,0,0,0,0,0,0,0,0,0,0,0,0,0,0,0,0,0,0,0,0,0,0,0,0,0,0,0,0,0,0,0,0,0,0,0,-0.1739,-0.174,0,-0.1809,-0.181,-0.1811,-0.1874,-0.1874,-0.1875,-0.1876,-0.1969,-0.1971,-0.1973,0,0,0,0,0,0,0,0,0,0,0,0,0,-0.1647,-0.1649,-0.1739,-0.174,-0.1741,-0.1809,-0.181,-0.1811,-0.1873,-0.1874,-0.1875,-0.1876,-0.1969,-0.1971,-0.1973,0,0,0,0,0,0,0,0,0,0,0,0,0,-0.1699,-0.1649,-0.1739,-0.178,-0.1784,-0.1809,-0.181,-0.1811,-0.1873,-0.1874,-0.1875,-0.1877,-0.1968,-0.1971,-0.1973,-0.1968,0,0,-0.1981,-0.1983,0,0,0,0,0,0,0,0,-0.1696,-0.1703,-0.1773,-0.1777,-0.1782,-0.1834,-0.1812,-0.1865,-0.1873,-0.1839,-0.1876,-0.1877,-0.1925,-0.1932,-0.1942,-0.1972,-0.1976,-0.1982,-0.1983,-0.1985,-0.1985,0,0,0,0,0,0,0,-0.1693,-0.17,-0.1767,-0.1774,-0.1779,-0.1791,-0.18,-0.1822,-0.1876,-0.1842,-0.1847,-0.1855,-0.1928,-0.1939,-0.1945,-0.1977,-0.1982,-0.1984,-0.1986,-0.1987,-0.2004,-0.2003,0,0,0,0,0,0,-0.1684,-0.1697,-0.1764,-0.1769,-0.1741,-0.1792,-0.1802,-0.1816,-0.1875,-0.1885,-0.1854,-0.1857,-0.1934,-0.1941,-0.1948,-0.1922,-0.1985,-0.1987,-0.1989,-0.2006,-0.2004,-0.2003,0,0,0,0,0,0,-0.1681,-0.1689,-0.1762,-0.1734,-0.1744,-0.1793,-0.1808,-0.1817,-0.1826,-0.1883,-0.1894,-0.1854,-0.1935,-0.1944,-0.1963,-0.1927,-0.1988,-0.1991,-0.2007,-0.2005,-0.2004,-0.1885,0,0,0,0,0,0,-0.1679,-0.1688,-0.1678,-0.1733,-0.1745,-0.1756,-0.1807,-0.1817,-0.1829,-0.1835,-0.1887,-0.1897,-0.1937,-0.1958,-0.1965,-0.1932,-0.1993,-0.2008,-0.2006,-0.2004,-0.189,-0.1879,-0.187,0,0,0,0,0,-0.1675,-0.1649,-0.1678,-0.1685,-0.1736,-0.1754,-0.176,-0.1799,-0.1828,-0.1815,-0.1861,-0.1895,-0.195,-0.196,-0.1968,-0.1935,-0.2009,-0.2007,-0.2004,-0.1894,-0.1881,-0.187,0,0,0,0,0,0,-0.1576,-0.1655,-0.1687,-0.1679,-0.171,-0.1765,-0.1748,-0.1788,-0.1814,-0.182,-0.1883,-0.1895,-0.1899,-0.1934,-0.1943,-0.1935,-0.1983,-0.1982,-0.1897,-0.1885,-0.1875,-0.1798,-0.1995,0,0,0,0,0,-0.1557,-0.1574,-0.1638,-0.1625,-0.1638,-0.1695,-0.1703,-0.1737,-0.1774,-0.1787,-0.1827,-0.1867,-0.1894,-0.1903,-0.1933,-0.1925,-0.19,-0.1909,-0.1899,-0.189,-0.1834,-0.1788,-0.1767,-0.1994,-0.1994,-0.1994,0,0,-0.151,-0.1556,-0.1561,-0.1607,-0.1633,-0.1626,-0.1701,-0.1706,-0.1694,-0.1792,-0.1778,-0.1834,-0.1886,-0.1882,-0.1885,-0.1905,-0.1811,-0.1887,-0.1879,-0.1826,-0.1782,-0.176,-0.1739,-0.1993,-0.1993,-0.1993,0,0,-0.1419,-0.147,-0.1451,-0.1478,-0.152,-0.1559,-0.1558,-0.1612,-0.1629,-0.1637,-0.1703,-0.1727,-0.1772,-0.1792,-0.1812,-0.1759,-0.1764,-0.1783,-0.166,-0.1617,-0.1596,-0.1578,-0.1502,-0.1478,-0.1771,-0.1771,-0.1771,0,-0.1348,-0.1352,-0.1438,-0.1423,-0.1425,-0.1522,-0.1484,-0.1513,-0.1564,-0.1557,-0.1613,-0.1648,-0.1716,-0.1683,-0.1679,-0.1729,-0.1694,-0.1704,-0.1598,-0.158,-0.1563,-0.1491,-0.1465,-0.1765,-0.1765,-0.1766,-0.1767,0,-0.1255,-0.1252,-0.1235,-0.1264,-0.1274,-0.1258,-0.132,-0.1326,-0.1373,-0.1402,-0.139,-0.1473,-0.1485,-0.1526,-0.1592,-0.151,-0.1518,-0.1595,-0.1619,-0.1532,-0.1463,-0.1438,-0.1756,-0.1758,-0.176,-0.1762,0,0,-0.1085,-0.1158,-0.1143,-0.114,-0.1192,-0.1187,-0.1168,-0.1167,-0.113,-0.1188,-0.1122,-0.1201,-0.1246,-0.1268,-0.1352,-0.1325,-0.1211,-0.1398,-0.1398,-0.1301,-0.1069,-0.1069,-0.1044,-0.1269,-0.1264,-0.1261,-0.1062,0,-0.0969,-0.0932,-0.0991,-0.0926,-0.0911,-0.0987,-0.0955,-0.0971,-0.0999,-0.0963,-0.1031,-0.1019,-0.1149,-0.1155,-0.1143,-0.121,-0.1143,-0.1254,-0.1185,-0.118,-0.1175,-0.1015,-0.093,-0.0744,-0.1038,-0.1034,-0.1032,0,-0.0837,-0.0842,-0.0778,-0.0785,-0.0776,-0.0747,-0.0713,-0.0699,-0.0694,-0.071,-0.0703,-0.0768,-0.0751,-0.088,-0.0857,-0.092,-0.0953,-0.0995,-0.099,-0.1003,-0.1135,-0.0885,-0.069,-0.0752,-0.0995,-0.0998,-0.1,0,-0.0693,-0.0674,-0.0627,-0.063,-0.0654,-0.0614,-0.061,-0.0606,-0.0574,-0.0536,-0.0497,-0.0505,-0.0502,-0.0535,-0.0665,-0.0738,-0.062,-0.0747,-0.0745,-0.0746,-0.066,-0.066,-0.0492,-0.0655,-0.0655,-0.0656,-0.0656,0,-0.0556,-0.0506,-0.0557,-0.0531,-0.0446,-0.0492,-0.0392,-0.0394,-0.0353,-0.0275,-0.0351,-0.0277,-0.0416,-0.041,-0.0523,-0.0537,-0.0503,-0.0641,-0.067,-0.0619,-0.0618,-0.0665,-0.0747,-0.0648,-0.065,-0.0651,-0.0653,0,-0.041,-0.0448,-0.0396,-0.04,-0.0388,-0.0326,-0.0286,-0.0218,-0.0192,-0.0081,-0.0058,-0.0069,-0.0057,-0.0177,-0.0225,-0.0343,-0.0377,-0.0393,-0.0309,-0.0332,-0.0421,-0.0501,-0.0309,-0.0314,-0.0318,-0.0316,-0.0315,0,-0.0344,-0.0307,-0.0297,-0.0267,-0.0265,-0.0198,-0.0151,-0.0136,-0.0065,0.005,0.0126,0.0171,0.0212,0.0159,-0.0012,-0.0108,-0.0241,-0.0122,-0.026,-0.0327,-0.0437,-0.0488,-0.0512,-0.0086,-0.0083,-0.008,-0.0078,0,-0.0216,-0.0217,-0.0192,-0.0141,-0.009,-0.0026,0.0046,0.0125,0.0174,0.0287,0.044,0.0495,0.0445,0.0391,0.0221,0.0113,-0.0124,-0.0075,-0.0146,-0.0201,-0.0232,-0.0287,-0.0317,-0.0056,-0.0058,-0.006,-0.0061,-0.0062,-0.0127,-0.0084,-0.0067,-0.001,0.0048,0.0145,0.0235,0.033,0.0478,0.0671,0.0687,0.0824,0.0692,0.0482,0.0337,0.0119,0.0048,0.003,-0.0041,-0.007,-0.0119,-0.0085,0.011,0.0109,0.0108,0.0107,0.0106,0,-0.0037,-0.0004,0.0058,0.0124,0.0214,0.0219,0.0363,0.0474,0.0681,0.0854,0.1005,0.1037,0.0902,0.0664,0.0354,0.0182,0.0102,0.008,0.0043,0.0024,0.0088,0.0047,0.0241,0.0241,0.0241,0.0241,0.0241,0.0241,0.0002,0.0075,0.0099,0.0248,0.0314,0.0457,0.0554,0.0729,0.0876,0.1119,0.1229,0.1268,0.1089,0.0591,0.025,0.0153,0.0018,0.0038,-0.0078,-0.0059,-0.0071,-0.0081,-0.0135,0.0018,0.0018,-0.0066,-0.0067,-0.0068]}],[{"header":{"parameterUnit":"m.s-1","parameterCategory":2,"la1":30.2991,"la2":30.254,"lo1":-89.0895,"lo2":-89.0444,"dy":0.0017,"dx":0.0017,"nx":28,"ny":28,"refTime":"2024-06-27T21:00:00:Z","depth":"2","parameterNumber":2,"parameterNumberName":"U-component_of_CURRENTS"},"data":[0,0,0,0,0,0,0,0,0,0,0,0,0,0,0,0,0,0,0,0,0,0,0,0,0,0,0,0,0,0,0,0,0,0,0,0,0,0,0,0,0,0,0,0,0,0,0,0,0,0,0,0,0,0,0,0,0,0,0.1149,0.1149,0,0.1191,0.1192,0.1193,0.1203,0.1202,0.1202,0.1201,0.1295,0.1298,0.1301,0,0,0,0,0,0,0,0,0,0,0,0,0,0.1131,0.1132,0.1149,0.1149,0.115,0.1191,0.1192,0.1193,0.1203,0.1202,0.1202,0.1201,0.1294,0.1298,0.1301,0,0,0,0,0,0,0,0,0,0,0,0,0,0.1155,0.1132,0.1149,0.1158,0.116,0.1191,0.1192,0.1193,0.1203,0.1202,0.1201,0.1201,0.1293,0.1298,0.1302,0.1343,0,0,0.1315,0.1317,0,0,0,0,0,0,0,0,0.1153,0.1155,0.1157,0.1158,0.1159,0.1189,0.122,0.1245,0.1203,0.1188,0.1201,0.1201,0.1264,0.1271,0.1282,0.1347,0.1351,0.1316,0.1318,0.132,0.1322,0,0,0,0,0,0,0,0.1152,0.1154,0.1168,0.1157,0.1159,0.1179,0.1181,0.1225,0.1232,0.119,0.119,0.1192,0.1265,0.1278,0.1285,0.1353,0.1316,0.1319,0.1322,0.1324,0.1478,0.148,0,0,0,0,0,0,0.114,0.1152,0.1166,0.1169,0.1152,0.1179,0.1182,0.1182,0.123,0.1236,0.1192,0.1192,0.1271,0.1279,0.1288,0.1357,0.132,0.1324,0.1327,0.1477,0.1478,0.148,0,0,0,0,0,0,0.114,0.1141,0.1165,0.116,0.1164,0.118,0.118,0.1183,0.1198,0.1232,0.1239,0.1204,0.1271,0.1282,0.1336,0.136,0.1326,0.133,0.1475,0.1477,0.1479,0.1485,0,0,0,0,0,0,0.1139,0.1141,0.1148,0.1159,0.1164,0.1195,0.1181,0.1184,0.1199,0.12,0.1245,0.1252,0.1271,0.1329,0.134,0.1366,0.1334,0.1473,0.1476,0.1479,0.1483,0.1487,0.149,0,0,0,0,0,0.1138,0.1155,0.1148,0.115,0.1169,0.1196,0.1202,0.1212,0.1201,0.122,0.1245,0.1251,0.1354,0.1334,0.1347,0.1374,0.1472,0.1475,0.1478,0.1481,0.1486,0.149,0,0,0,0,0,0,0.1171,0.1158,0.115,0.1166,0.1182,0.1197,0.1217,0.1216,0.125,0.125,0.1273,0.1284,0.1341,0.136,0.1337,0.1427,0.1413,0.1419,0.1411,0.1416,0.142,0.1425,0.1337,0,0,0,0,0,0.1175,0.1174,0.1175,0.1194,0.1196,0.1204,0.1218,0.1222,0.1246,0.1259,0.1286,0.1321,0.1366,0.1391,0.1432,0.1485,0.1534,0.151,0.1514,0.1517,0.1531,0.163,0.1644,0.1491,0.1491,0.1491,0,0,0.1197,0.1188,0.1192,0.1199,0.1208,0.1225,0.1212,0.1235,0.1255,0.1267,0.131,0.134,0.1384,0.1439,0.1466,0.1457,0.1588,0.1521,0.1523,0.1536,0.1635,0.165,0.1663,0.1493,0.1493,0.1492,0,0,0.1235,0.1227,0.1234,0.1241,0.1247,0.1253,0.1257,0.1272,0.1284,0.1327,0.134,0.1386,0.1446,0.1483,0.1509,0.1564,0.1606,0.1572,0.1597,0.1692,0.1706,0.1719,0.1804,0.1824,0.1573,0.1573,0.1573,0,0.1263,0.1263,0.1249,0.1258,0.1266,0.1262,0.1281,0.1299,0.1332,0.1352,0.1344,0.1445,0.1471,0.155,0.156,0.1574,0.1632,0.1571,0.1698,0.1711,0.1724,0.1809,0.1831,0.1573,0.1573,0.1573,0.1573,0,0.1298,0.13,0.1311,0.1307,0.1322,0.1341,0.1348,0.137,0.1376,0.1394,0.1465,0.1507,0.157,0.1579,0.1584,0.1684,0.1698,0.1691,0.1683,0.174,0.1826,0.1849,0.1574,0.1574,0.1574,0.1574,0,0,0.1358,0.1334,0.1341,0.1334,0.1343,0.1357,0.1392,0.1424,0.1453,0.1489,0.1548,0.1607,0.1627,0.1659,0.1679,0.1745,0.1873,0.1752,0.1757,0.1833,0.2092,0.2039,0.2059,0.1891,0.1895,0.1898,0.2116,0,0.139,0.1394,0.1385,0.1408,0.1407,0.1412,0.1446,0.1476,0.1506,0.1564,0.1611,0.1679,0.1659,0.1698,0.1765,0.1851,0.1934,0.1815,0.203,0.2037,0.198,0.2084,0.1702,0.186,0.2139,0.2143,0.2146,0,0.143,0.1417,0.1431,0.1428,0.1433,0.146,0.1504,0.1534,0.1606,0.1635,0.1707,0.1745,0.1853,0.1825,0.2019,0.1947,0.2027,0.2084,0.2094,0.206,0.2028,0.1849,0.1891,0.2184,0.2181,0.2178,0.2176,0,0.1458,0.1458,0.146,0.146,0.1463,0.1489,0.151,0.1566,0.1595,0.1697,0.1745,0.1861,0.1945,0.2059,0.2163,0.2113,0.2377,0.2327,0.2362,0.2359,0.2085,0.2051,0.2486,0.2486,0.2485,0.2484,0.2484,0,0.1488,0.1497,0.1473,0.1475,0.1501,0.1506,0.1557,0.1597,0.1664,0.1721,0.1792,0.1882,0.2011,0.2153,0.223,0.238,0.2448,0.2402,0.2426,0.2076,0.204,0.2351,0.2332,0.2493,0.2491,0.2489,0.2488,0,0.1526,0.1505,0.1513,0.1511,0.1512,0.1542,0.1572,0.1607,0.1675,0.1763,0.1804,0.1946,0.2136,0.226,0.247,0.2475,0.2612,0.2647,0.2224,0.2194,0.2512,0.2491,0.2715,0.2716,0.2716,0.2716,0.2716,0,0.1533,0.1536,0.154,0.1538,0.1543,0.1565,0.1579,0.1622,0.1659,0.1802,0.1856,0.2054,0.2172,0.2448,0.2441,0.2572,0.2702,0.2366,0.2195,0.2543,0.2544,0.2522,0.2502,0.1837,0.183,0.1824,0.1819,0,0.1539,0.1556,0.1556,0.1558,0.1569,0.1572,0.1601,0.1626,0.169,0.1774,0.1909,0.2011,0.2169,0.2119,0.2267,0.2287,0.23,0.2257,0.2759,0.1837,0.1732,0.1727,0.1732,0.1768,0.1773,0.1777,0.178,0.1782,0.1531,0.1549,0.1541,0.1553,0.1568,0.1568,0.1568,0.1606,0.166,0.1721,0.1858,0.1896,0.1879,0.1896,0.1911,0.1886,0.2044,0.1951,0.1962,0.198,0.1838,0.1739,0.1751,0.1755,0.1759,0.1763,0.1766,0,0.1459,0.1488,0.1512,0.1506,0.152,0.1539,0.1557,0.1539,0.1589,0.1607,0.1674,0.1495,0.1439,0.1504,0.1303,0.1336,0.1245,0.1366,0.1177,0.1224,0.1267,0.1084,0.08,0.0799,0.0798,0.0798,0,0,0.1394,0.1394,0.1422,0.142,0.1448,0.1441,0.1449,0.1435,0.142,0.1362,0.1291,0.1328,0.1354,0.1054,0.0995,0.0877,0.1064,0.0838,0.1573,0.1386,0.1429,0.1526,0.1289,0,0,0,0,0]},{"header":{"parameterUnit":"m.s-1","parameterCategory":2,"la1":30.2991,"la2":30.254,"lo1":-89.0895,"lo2":-89.0444,"dy":0.0017,"dx":0.0017,"nx":28,"ny":28,"refTime":"2024-06-27T21:00:00:Z","depth":"2","parameterNumber":3,"parameterNumberName":"V-component_of_CURRENTS"},"data":[0,0,0,0,0,0,0,0,0,0,0,0,0,0,0,0,0,0,0,0,0,0,0,0,0,0,0,0,0,0,0,0,0,0,0,0,0,0,0,0,0,0,0,0,0,0,0,0,0,0,0,0,0,0,0,0,0,0,0.047,0.047,0,0.0474,0.0475,0.0475,0.0471,0.047,0.0469,0.0469,0.0411,0.041,0.0409,0,0,0,0,0,0,0,0,0,0,0,0,0,0.0528,0.0527,0.047,0.047,0.0469,0.0474,0.0475,0.0475,0.0471,0.047,0.0469,0.0468,0.0411,0.041,0.0409,0,0,0,0,0,0,0,0,0,0,0,0,0,0.0519,0.0526,0.047,0.0464,0.0463,0.0474,0.0475,0.0476,0.0471,0.047,0.0469,0.0468,0.0412,0.041,0.0409,0.0421,0,0,0.0405,0.0404,0,0,0,0,0,0,0,0,0.052,0.0518,0.0465,0.0464,0.0463,0.0466,0.0474,0.0452,0.0471,0.0474,0.0469,0.0468,0.0421,0.0419,0.043,0.0418,0.0416,0.0405,0.0404,0.0403,0.0403,0,0,0,0,0,0,0,0.052,0.0518,0.0477,0.0464,0.0463,0.0484,0.0481,0.0471,0.0456,0.0473,0.0472,0.0464,0.042,0.0432,0.0429,0.0415,0.0405,0.0403,0.0403,0.0402,0.0291,0.0289,0,0,0,0,0,0,0.0506,0.0518,0.0477,0.0477,0.0483,0.0483,0.0481,0.0471,0.0457,0.0453,0.0465,0.0463,0.0435,0.043,0.0426,0.0317,0.0403,0.0402,0.0401,0.0293,0.029,0.0288,0,0,0,0,0,0,0.0507,0.0502,0.0477,0.0494,0.0491,0.0482,0.0472,0.0471,0.0437,0.045,0.0446,0.0424,0.0434,0.0428,0.0385,0.0319,0.0401,0.04,0.0296,0.0292,0.0289,0.0176,0,0,0,0,0,0,0.0509,0.0503,0.0472,0.0492,0.0489,0.0446,0.0472,0.0472,0.0434,0.0431,0.0415,0.0412,0.0433,0.0387,0.0384,0.0319,0.0399,0.0298,0.0294,0.029,0.0183,0.017,0.0159,0,0,0,0,0,0.0511,0.0472,0.0471,0.0465,0.0454,0.0444,0.0444,0.0439,0.0432,0.0407,0.0402,0.041,0.0359,0.0385,0.0381,0.0314,0.03,0.0295,0.0291,0.0188,0.0172,0.0159,0,0,0,0,0,0,0.0459,0.0468,0.0467,0.0425,0.0418,0.044,0.0404,0.0409,0.0389,0.0368,0.0391,0.0388,0.0324,0.0338,0.0366,0.0271,0.0326,0.0321,0.025,0.0235,0.0223,0.0235,0.0398,0,0,0,0,0,0.0439,0.0417,0.0427,0.0384,0.0374,0.0382,0.0368,0.0365,0.0359,0.0347,0.0338,0.0324,0.0311,0.0286,0.0279,0.0228,0.0248,0.018,0.0168,0.0158,0.0165,0.0149,0.0136,0.0272,0.0272,0.0272,0,0,0.0403,0.0403,0.0386,0.0372,0.0362,0.0344,0.037,0.0326,0.0303,0.0342,0.0282,0.0278,0.029,0.0237,0.0208,0.0232,0.0123,0.0151,0.0142,0.0156,0.0142,0.0129,0.0118,0.0269,0.027,0.027,0,0,0.0336,0.0318,0.0287,0.0282,0.0258,0.0271,0.0246,0.0239,0.022,0.0179,0.0197,0.0159,0.013,0.013,0.0129,0.0044,0.0064,0.002,-0.0041,-0.0059,-0.0069,-0.0079,-0.0095,-0.0105,0.0008,0.0007,0.0007,0,0.0279,0.0265,0.027,0.0244,0.0234,0.0231,0.0202,0.0184,0.0161,0.0147,0.0134,0.0098,0.0086,0.0053,0.0015,0.0014,0.0012,0.0013,-0.0074,-0.0082,-0.009,-0.0104,-0.0113,0.0001,0.0002,0.0003,0.0003,0,0.022,0.0195,0.0167,0.015,0.0135,0.01,0.0095,0.0057,0.0031,0.003,-0.0029,-0.0034,-0.0046,-0.0079,-0.0062,-0.0129,-0.0112,-0.0083,-0.0035,-0.011,-0.0121,-0.0128,-0.0007,-0.0005,-0.0003,-0.0002,0,0,0.0112,0.0127,0.0111,0.0116,0.0088,0.0081,0.0022,0.0001,-0.0018,-0.0079,-0.0095,-0.0162,-0.0163,-0.0163,-0.0163,-0.0197,-0.0277,-0.0179,-0.0177,-0.0193,-0.0324,-0.0239,-0.0238,-0.0269,-0.027,-0.0272,-0.0319,0,0.0056,0.0039,0.0047,0.0011,0.0008,-0.0001,-0.0032,-0.006,-0.0084,-0.0106,-0.0143,-0.0161,-0.0195,-0.0202,-0.0253,-0.0239,-0.0298,-0.0266,-0.025,-0.0249,-0.0162,-0.0244,-0.0224,-0.0257,-0.0326,-0.0327,-0.0328,0,-0.0004,0.0006,-0.0014,0.0001,-0.0009,-0.0039,-0.0059,-0.0084,-0.0116,-0.0132,-0.0175,-0.018,-0.0235,-0.0247,-0.0317,-0.0296,-0.0337,-0.0346,-0.0347,-0.0224,-0.0177,-0.0188,-0.0267,-0.0339,-0.0339,-0.0338,-0.0337,0,-0.0024,-0.0041,-0.0039,-0.004,-0.0035,-0.0064,-0.0077,-0.0105,-0.0093,-0.0139,-0.0117,-0.0199,-0.0192,-0.0275,-0.0307,-0.0324,-0.0356,-0.037,-0.0344,-0.0339,-0.0291,-0.0277,-0.045,-0.045,-0.045,-0.045,-0.045,0,-0.0059,-0.0071,-0.0048,-0.0048,-0.0054,-0.0065,-0.0076,-0.0099,-0.0092,-0.0045,-0.0124,-0.0077,-0.0198,-0.0217,-0.0299,-0.0322,-0.0358,-0.0364,-0.0348,-0.0331,-0.0321,-0.0355,-0.0343,-0.0452,-0.0451,-0.0451,-0.0451,0,-0.008,-0.0069,-0.006,-0.0055,-0.0057,-0.0065,-0.0044,-0.002,-0.0034,0.0033,0.003,0.0018,-0.0006,-0.0108,-0.0197,-0.0262,-0.0318,-0.0326,-0.0294,-0.0272,-0.0307,-0.0301,-0.0333,-0.0331,-0.0329,-0.0327,-0.0325,0,-0.0084,-0.0076,-0.0051,-0.0027,-0.0033,-0.0029,0.0002,-0.0001,0.0054,0.0125,0.0185,0.0174,0.0217,0.0117,-0.0019,-0.0152,-0.0223,-0.0227,-0.0261,-0.0316,-0.0297,-0.0294,-0.0291,-0.0269,-0.0267,-0.0265,-0.0264,0,-0.0078,-0.0074,-0.0048,0.0004,0.003,0.0089,0.0127,0.0187,0.0232,0.0315,0.0444,0.0483,0.0398,0.0293,0.0107,0.0015,-0.0208,-0.0196,-0.027,-0.0274,-0.025,-0.0233,-0.0233,-0.025,-0.0252,-0.0253,-0.0254,-0.0254,-0.0062,-0.004,0.0007,0.0045,0.0101,0.0203,0.0274,0.0368,0.0491,0.0627,0.0646,0.0694,0.0517,0.0309,0.0166,-0.0025,-0.0045,-0.0158,-0.0166,-0.0174,-0.013,-0.0101,-0.0067,-0.0067,-0.0068,-0.0068,-0.0068,0,0.0,0.0014,0.0059,0.0131,0.022,0.0232,0.0377,0.0486,0.0671,0.0745,0.0857,0.0712,0.0594,0.0373,0.0127,-0.0002,-0.0052,-0.0069,-0.0133,-0.0144,-0.0154,-0.0113,-0.0044,-0.0045,-0.0045,-0.0045,0,0,0.0045,0.0101,0.0114,0.0231,0.0288,0.044,0.0541,0.0708,0.079,0.0898,0.0886,0.0868,0.0608,0.0418,0.023,0.0087,0.0005,0.0068,0.0065,0.0002,-0.0007,-0.0187,-0.0131,0,0,0,0,0]}],[{"header":{"parameterUnit":"m.s-1","parameterCategory":2,"la1":30.2991,"la2":30.254,"lo1":-89.0895,"lo2":-89.0444,"dy":0.0017,"dx":0.0017,"nx":28,"ny":28,"refTime":"2024-06-27T21:00:00:Z","depth":"4","parameterNumber":2,"parameterNumberName":"U-component_of_CURRENTS"},"data":[0,0,0,0,0,0,0,0,0,0,0,0,0,0,0,0,0,0,0,0,0,0,0,0,0,0,0,0,0,0,0,0,0,0,0,0,0,0,0,0,0,0,0,0,0,0,0,0,0,0,0,0,0,0,0,0,0,0,-0.0178,-0.0179,0,-0.0184,-0.0184,-0.0184,-0.0146,-0.0145,-0.0145,-0.0144,-0.0091,-0.009,-0.009,0,0,0,0,0,0,0,0,0,0,0,0,0,-0.0197,-0.0196,-0.0178,-0.0179,-0.0179,-0.0184,-0.0184,-0.0184,-0.0147,-0.0145,-0.0144,-0.0143,-0.0091,-0.009,-0.009,0,0,0,0,0,0,0,0,0,0,0,0,0,-0.0193,-0.0196,-0.0178,-0.0162,-0.0161,-0.0184,-0.0184,-0.0184,-0.0147,-0.0145,-0.0144,-0.0143,-0.0091,-0.009,-0.009,-0.0113,0,0,-0.0087,-0.0087,0,0,0,0,0,0,0,0,-0.0193,-0.0192,-0.0164,-0.0163,-0.0162,-0.0165,-0.0172,-0.0158,-0.0147,-0.015,-0.0144,-0.0142,-0.0112,-0.011,-0.0112,-0.011,-0.0108,-0.0087,-0.0087,-0.0086,-0.0086,0,0,0,0,0,0,0,-0.0193,-0.0192,-0.0179,-0.0164,-0.0163,-0.0176,-0.0173,-0.0169,-0.0137,-0.015,-0.0148,-0.0151,-0.0111,-0.0113,-0.0111,-0.0107,-0.0087,-0.0086,-0.0086,-0.0086,-0.0051,-0.005,0,0,0,0,0,0,-0.0194,-0.0192,-0.0179,-0.018,-0.0176,-0.0176,-0.0173,-0.0164,-0.0138,-0.0134,-0.0152,-0.015,-0.0115,-0.0112,-0.0109,-0.0035,-0.0086,-0.0085,-0.0085,-0.0051,-0.0051,-0.005,0,0,0,0,0,0,-0.0194,-0.0192,-0.0179,-0.0188,-0.0187,-0.0177,-0.0167,-0.0165,-0.0117,-0.0141,-0.0135,-0.0102,-0.0114,-0.011,-0.0069,-0.0037,-0.0085,-0.0084,-0.0052,-0.0051,-0.0051,0.0048,0,0,0,0,0,0,-0.0194,-0.0192,-0.0178,-0.0187,-0.0187,-0.0163,-0.0169,-0.0166,-0.0126,-0.012,-0.0097,-0.0093,-0.0113,-0.007,-0.0068,-0.0036,-0.0084,-0.0052,-0.0052,-0.0051,0.0044,0.0052,0.0058,0,0,0,0,0,-0.0195,-0.0179,-0.0177,-0.0176,-0.017,-0.0162,-0.0161,-0.015,-0.0124,-0.0101,-0.0083,-0.0091,-0.0065,-0.0068,-0.0067,-0.0034,-0.0053,-0.0052,-0.0051,0.0041,0.005,0.0058,0,0,0,0,0,0,-0.018,-0.0174,-0.0172,-0.0155,-0.0147,-0.0155,-0.0136,-0.0119,-0.0088,-0.0059,-0.0075,-0.0071,-0.0033,-0.0049,-0.0053,-0.0027,-0.0064,-0.0063,0.0005,0.0013,0.002,0.0057,-0.0083,0,0,0,0,0,-0.0173,-0.0157,-0.0156,-0.0142,-0.0129,-0.012,-0.011,-0.0087,-0.007,-0.0051,-0.0026,-0.0019,-0.0039,-0.0019,-0.003,0.0002,-0.0025,0.0018,0.0025,0.0031,0.006,0.0027,0.0035,-0.0047,-0.0047,-0.0047,0,0,-0.0173,-0.0162,-0.0157,-0.0137,-0.0127,-0.0092,-0.0107,-0.0062,-0.0021,-0.0051,0.0036,0.0015,-0.0028,-0.0005,0.0011,-0.0001,0.0038,0.0033,0.0039,0.0064,0.0029,0.0037,0.0045,-0.0046,-0.0047,-0.0047,0,0,-0.0155,-0.0138,-0.0115,-0.0091,-0.0054,-0.0044,-0.0014,0.0028,0.0059,0.0118,0.0089,0.0095,0.0115,0.0076,0.0052,0.0094,0.0069,0.0098,0.0182,0.015,0.0157,0.0163,0.0134,0.0137,0.0112,0.0112,0.0112,0,-0.0149,-0.0113,-0.0108,-0.0064,-0.0035,-0.0008,0.0042,0.0069,0.0128,0.0147,0.0168,0.0165,0.0142,0.0117,0.0138,0.0112,0.0103,0.0156,0.0162,0.0167,0.0171,0.0141,0.0142,0.0117,0.0116,0.0116,0.0115,0,-0.0115,-0.0067,-0.0042,0.0021,0.005,0.0106,0.0142,0.0199,0.025,0.0268,0.0299,0.0268,0.0265,0.0245,0.0216,0.0227,0.0212,0.0168,0.0147,0.0186,0.015,0.015,0.0124,0.0122,0.012,0.0119,0,0,-0.0141,-0.0039,-0.0025,0.0026,0.0114,0.0141,0.0214,0.0261,0.0304,0.0365,0.0401,0.0379,0.0389,0.0362,0.0319,0.0306,0.0321,0.0285,0.0281,0.0271,0.0276,0.0253,0.025,0.0296,0.0297,0.0298,0.0237,0,-0.0108,-0.0013,0.003,0.0131,0.0188,0.024,0.0289,0.0341,0.0387,0.0436,0.0412,0.0435,0.0421,0.0432,0.0421,0.0337,0.0329,0.0343,0.0228,0.0225,0.0211,0.0252,0.03,0.0237,0.0237,0.0237,0.0237,0,-0.0088,-0.0018,0.0083,0.0192,0.0218,0.0281,0.0362,0.0415,0.0463,0.0501,0.0538,0.0535,0.0536,0.0513,0.0444,0.0467,0.0408,0.0341,0.0336,0.0289,0.0204,0.0187,0.0236,0.0236,0.0236,0.0236,0.0236,0,-0.0116,0.0016,0.01,0.0145,0.0265,0.0315,0.0376,0.0438,0.0479,0.0558,0.0593,0.0603,0.0599,0.0554,0.0436,0.0472,0.0321,0.033,0.0247,0.0243,0.0237,0.0231,0.0287,0.0287,0.0287,0.0288,0.0288,0,-0.0099,-0.0036,0.0102,0.0152,0.0242,0.0326,0.0406,0.0465,0.0537,0.0554,0.0638,0.059,0.0619,0.0527,0.045,0.0334,0.0327,0.0285,0.0236,0.0276,0.0276,0.0236,0.0231,0.0285,0.0286,0.0286,0.0287,0,-0.0148,-0.0056,0.0042,0.0188,0.0235,0.03,0.0427,0.0463,0.0558,0.0582,0.0617,0.0606,0.0522,0.0486,0.0357,0.0333,0.0214,0.0153,0.0187,0.0134,0.0177,0.0178,0.016,0.0159,0.0158,0.0157,0.0156,0,-0.016,-0.0116,0.0047,0.0102,0.0178,0.0287,0.0337,0.046,0.048,0.0507,0.0471,0.0457,0.0434,0.0258,0.0199,0.013,0.01,0.0087,0.0202,0.0216,0.0169,0.0171,0.0173,0.0155,0.0155,0.0154,0.0154,0,-0.02,-0.0148,-0.0064,0.0047,0.0131,0.0206,0.0283,0.0291,0.0379,0.0477,0.0391,0.0376,0.0271,0.0204,0.0166,0.0066,0.0149,0.008,0.0084,0.0192,0.0209,0.0164,0.0167,0.0151,0.0152,0.0152,0.0152,0,-0.0241,-0.0202,-0.0104,-0.0005,0.0069,0.0087,0.0149,0.0181,0.0235,0.032,0.0214,0.0187,0.02,0.015,0.002,0.0044,0.01,0.0147,0.015,0.0153,0.018,0.0203,0.012,0,0,0,0,0,-0.0263,-0.0232,-0.0169,-0.0067,-0.0015,0.0034,0.0083,0.0132,0.02,0.0173,0.0247,0.0155,0.0125,0.0026,0.0059,-0.0019,0.0054,0.0015,0.0098,0.0134,0.0137,0.017,0,0,0,0,0,0,-0.0279,-0.0233,-0.0189,-0.0156,-0.0111,-0.0062,-0.0041,0.0008,0.0002,0.0085,0.0044,0.0181,0.0101,0.0134,0.0064,0.0061,0.0121,0.0033,0.0034,0.0132,0.0135,0.0138,0.0173,0,0,0,0,0]},{"header":{"parameterUnit":"m.s-1","parameterCategory":2,"la1":30.2991,"la2":30.254,"lo1":-89.0895,"lo2":-89.0444,"dy":0.0017,"dx":0.0017,"nx":28,"ny":28,"refTime":"2024-06-27T21:00:00:Z","depth":"4","parameterNumber":3,"parameterNumberName":"V-component_of_CURRENTS"},"data":[0,0,0,0,0,0,0,0,0,0,0,0,0,0,0,0,0,0,0,0,0,0,0,0,0,0,0,0,0,0,0,0,0,0,0,0,0,0,0,0,0,0,0,0,0,0,0,0,0,0,0,0,0,0,0,0,0,0,0.0367,0.0367,0,0.0385,0.0385,0.0385,0.0456,0.0457,0.0459,0.046,0.0477,0.0476,0.0475,0,0,0,0,0,0,0,0,0,0,0,0,0,0.0391,0.0391,0.0367,0.0367,0.0368,0.0385,0.0385,0.0385,0.0455,0.0457,0.0459,0.0461,0.0477,0.0476,0.0475,0,0,0,0,0,0,0,0,0,0,0,0,0,0.0394,0.0391,0.0367,0.0403,0.0407,0.0385,0.0385,0.0386,0.0455,0.0457,0.0459,0.0461,0.0477,0.0476,0.0474,0.0421,0,0,0.047,0.047,0,0,0,0,0,0,0,0,0.0393,0.0393,0.0398,0.0401,0.0404,0.0419,0.04,0.0397,0.0454,0.0438,0.046,0.0463,0.0454,0.0455,0.0456,0.0422,0.0423,0.047,0.0469,0.0469,0.0468,0,0,0,0,0,0,0,0.0393,0.0392,0.0376,0.0398,0.0402,0.0417,0.042,0.04,0.0435,0.044,0.0445,0.0443,0.0457,0.0457,0.0457,0.0423,0.047,0.0469,0.0468,0.0467,0.0449,0.0449,0,0,0,0,0,0,0.0385,0.0392,0.0375,0.0376,0.0402,0.0415,0.0418,0.0413,0.0435,0.044,0.0441,0.0446,0.0458,0.0458,0.0457,0.0521,0.0469,0.0467,0.0467,0.0448,0.0449,0.0449,0,0,0,0,0,0,0.0386,0.0383,0.0375,0.0384,0.0384,0.0412,0.0406,0.0412,0.0471,0.0436,0.0442,0.05,0.046,0.0459,0.0483,0.0518,0.0467,0.0465,0.0448,0.0449,0.0449,0.0568,0,0,0,0,0,0,0.0386,0.0383,0.0395,0.0383,0.0383,0.0398,0.0404,0.0411,0.0462,0.0471,0.0486,0.0487,0.0462,0.0485,0.0482,0.0515,0.0464,0.0448,0.0448,0.0449,0.0563,0.0572,0.058,0,0,0,0,0,0.0387,0.0406,0.0395,0.0395,0.0392,0.0399,0.0402,0.043,0.0463,0.0492,0.0504,0.049,0.0486,0.0485,0.048,0.0514,0.0447,0.0448,0.0449,0.056,0.057,0.058,0,0,0,0,0,0,0.0433,0.0413,0.0403,0.0417,0.0418,0.0412,0.0451,0.0461,0.0494,0.0537,0.0498,0.0499,0.053,0.0497,0.0496,0.0505,0.0462,0.0462,0.0548,0.0557,0.0566,0.0562,0.0463,0,0,0,0,0,0.0438,0.0451,0.0426,0.0444,0.0454,0.0459,0.0476,0.0506,0.0519,0.0542,0.0551,0.0548,0.0516,0.0524,0.0506,0.0515,0.046,0.0528,0.0536,0.0544,0.0535,0.0464,0.0465,0.0452,0.0452,0.0452,0,0,0.0457,0.0454,0.0459,0.0455,0.047,0.0503,0.048,0.0544,0.0582,0.0534,0.0619,0.0589,0.0524,0.0537,0.0547,0.0526,0.0526,0.0545,0.0552,0.0538,0.0465,0.0466,0.0468,0.0452,0.0452,0.0452,0,0,0.0518,0.0507,0.0544,0.0555,0.0592,0.0588,0.0617,0.0652,0.0681,0.0724,0.0692,0.0685,0.0675,0.0626,0.059,0.0627,0.0572,0.0629,0.0673,0.0607,0.0607,0.0607,0.0574,0.0569,0.0634,0.0634,0.0634,0,0.0549,0.0574,0.0559,0.0609,0.0621,0.0634,0.0681,0.0707,0.0753,0.0744,0.078,0.0722,0.0705,0.0637,0.0663,0.0648,0.0607,0.0648,0.0619,0.0617,0.0614,0.058,0.0573,0.064,0.0639,0.0639,0.0638,0,0.0615,0.0663,0.0699,0.0744,0.0757,0.0813,0.082,0.0861,0.0894,0.0889,0.0876,0.0839,0.0779,0.0784,0.0743,0.0703,0.0681,0.0641,0.0599,0.0623,0.0585,0.0577,0.0648,0.0646,0.0644,0.0643,0,0,0.0627,0.0719,0.0745,0.0764,0.0834,0.0836,0.0901,0.0895,0.0892,0.0951,0.0909,0.0896,0.0866,0.082,0.0767,0.0731,0.0714,0.0696,0.069,0.0675,0.0589,0.0559,0.0547,0.0668,0.0667,0.0665,0.0583,0,0.0687,0.0783,0.0815,0.0897,0.0926,0.0937,0.0954,0.0965,0.0965,0.0941,0.0898,0.0867,0.0877,0.0846,0.0812,0.0701,0.069,0.0741,0.0557,0.0552,0.053,0.0534,0.066,0.0576,0.0574,0.0572,0.0571,0,0.0738,0.0786,0.088,0.0907,0.0917,0.0974,0.0943,0.0971,0.0937,0.0933,0.0902,0.0854,0.0794,0.0812,0.0683,0.0712,0.0678,0.0626,0.062,0.0537,0.0504,0.0534,0.0554,0.0555,0.0557,0.0558,0.0559,0,0.0706,0.0817,0.0877,0.0903,0.0952,0.0979,0.0999,0.0983,0.098,0.0941,0.0916,0.0828,0.0778,0.0707,0.0634,0.0646,0.0494,0.0481,0.0436,0.0434,0.0435,0.0435,0.0428,0.0428,0.0429,0.0429,0.0429,0,0.0708,0.0769,0.088,0.0914,0.0944,0.0981,0.1003,0.0997,0.0988,0.0943,0.0925,0.0812,0.0753,0.0652,0.0603,0.0484,0.047,0.0438,0.04,0.0492,0.05,0.0431,0.0432,0.0426,0.0426,0.0427,0.0428,0,0.0666,0.076,0.0827,0.0912,0.0951,0.0974,0.1054,0.1034,0.1045,0.098,0.0972,0.0814,0.0649,0.0609,0.0457,0.0435,0.0332,0.0318,0.0443,0.0414,0.033,0.0339,0.0223,0.0221,0.0219,0.0218,0.0217,0,0.0631,0.0688,0.0829,0.0883,0.095,0.1016,0.1045,0.108,0.1046,0.0921,0.0838,0.0699,0.059,0.0347,0.0302,0.024,0.0255,0.0247,0.0285,0.0329,0.0304,0.0315,0.0325,0.0214,0.0214,0.0213,0.0213,0,0.0557,0.0662,0.0707,0.0852,0.0931,0.0964,0.1004,0.0935,0.0904,0.0962,0.0692,0.0571,0.0383,0.0233,0.0246,0.0182,0.0256,0.023,0.0233,0.0268,0.0316,0.0296,0.0308,0.0207,0.0208,0.0208,0.0209,0,0.0504,0.053,0.0662,0.0759,0.0884,0.0856,0.0852,0.0781,0.0749,0.0637,0.0512,0.0355,0.0309,0.0195,0.0139,0.0143,0.0134,0.0159,0.0166,0.0173,0.0198,0.0255,0.0083,0,0,0,0,0,0.0449,0.0489,0.056,0.0658,0.0792,0.0877,0.0808,0.0772,0.0714,0.0539,0.0548,0.0373,0.0233,0.0107,0.0097,0.0093,0.0133,0.0081,0.0166,0.0175,0.0182,0.0219,0,0,0,0,0,0,0.0407,0.049,0.0513,0.0593,0.0681,0.077,0.0713,0.0636,0.0511,0.0469,0.036,0.0459,0.0291,0.0315,0.0147,0.0138,0.0195,0.0072,0.0072,0.0171,0.0177,0.0183,0.0224,0,0,0,0,0]}]]